Torna al catalogo

STARLINK-2330

AttivoComunicazioniVLEO
NORAD 47874·PAYLOAD·🇺🇸 United States

Lanciato Mar 14, 2021 da Cape Canaveral Space Force Station

Loading…

Prossimi Passaggi (prossime 24 ore)

TLE

AggiornatoSource: CelesTrak SupGP

Epoca: Sep 14, 2026, 13:02 UTC

1 47874C 21021Q   26257.54354167 -.00006648  00000+0 -13501-3 0  2578
2 47874  53.1406  49.6552 0001396  60.0725 181.5647 15.45749703    19

Traccia STARLINK-2330 in tempo reale con AllMySat

Download on the App Store